NOAA NWS Hourly Roundups by Site

Regional Weather Roundup for Indianapolis, IN

To Select Another Site Choose from List

Select Site:  

000
ASUS43 KIND 190210
RWRIN

WEATHER ROUNDUP FOR INDIANA
NATIONAL WEATHER SERVICE INDIANAPOLIS IN
1000 PM EDT MON OCT 18 2021

NOTE: "FAIR" INDICATES FEW OR NO CLOUDS BELOW 12,000 FEET WITH NO
SIGNIFICANT WEATHER AND/OR OBSTRUCTIONS TO VISIBILITY.

* - STATION DOES NOT REPORT WEATHER SUCH AS PRECIPITATION OR FOG.

+ - STATION NOT QUALITY CONTROLLED BY THE NATIONAL WEATHER SERVICE.
    USE DATA WITH CAUTION...ESPECIALLY DEWPOINT AND RELATIVE
    HUMIDITY OBSERVATIONS.

INZ001>003-010>013-019-020-190300-
NORTHWEST INDIANA

CITY           SKY/WX    TMP DP  RH WIND       PRES   REMARKS
GARY /AIRPORT/ CLEAR     50  48  93 SE3       30.09S
KNOX *+        CLEAR     48  46  93 CALM      30.10S
LA PORTE +     CLEAR     48  45  88 CALM      30.11S
MICHIGAN CITY+ CLEAR     48  46  93 CALM      30.10S
MONTICELLO +   CLEAR     56  45  66 S5        30.12R
RENSSELAER +   CLEAR     54  43  66 CALM      30.11R
VALPARAISO     CLEAR     53  45  74 CALM      30.10S

$$

LMZ046-743>745-190300-
SOUTHERN LAKE MICHIGAN

STATION/POSITION TIME  TEMP WIND        PRES
                       AIR  DIR/SP/G
                 (UTC) (F)  (DEG/KT/KT) (MB)
BURNS HARBOR     0130   63  190/  3/  4 1019.3R
MICHIGAN CITY    0140   61  150/  8/  9 1019.4R

$$

INZ004-005-014>016-021>024-190300-
NORTH CENTRAL INDIANA

CITY           SKY/WX    TMP DP  RH WIND       PRES   REMARKS
GOSHEN         CLEAR    N/A N/A N/A CALM      30.12R
LOGANSPORT +   CLEAR     50  45  81 N7        30.13S
PERU/GRISSOM   CLEAR     52  44  72 S5        30.12R
ROCHESTER +    HAZE      52  46  82 CALM      30.12S VSB 1
SOUTH BEND     CLEAR     51  45  79 CALM      30.12R
WARSAW +       CLEAR     48  45  87 CALM      30.12R

$$

INZ006>009-017-018-025>027-190300-
NORTHEAST INDIANA

CITY           SKY/WX    TMP DP  RH WIND       PRES   REMARKS
ANGOLA *+      PTCLDY    48  46  93 CALM      30.12R
AUBURN +       CLEAR     46  45  93 CALM      30.13R
FORT WAYNE     CLEAR     50  44  80 CALM      30.13R
KENDALLVILLE + FAIR      47  46  95 CALM      30.13R

$$

INZ028-029-035-036-043>045-051>053-190300-
WEST CENTRAL INDIANA

CITY           SKY/WX    TMP DP  RH WIND       PRES   REMARKS
CRAWFORDSVL +  CLEAR     47  41  78 CALM      30.14R
LAFAYETTE      CLEAR     52  47  83 CALM      30.11S
TERRE HAUTE    CLEAR     50  46  86 CALM      30.14R

$$

INZ030>032-037>040-046>048-054>057-064-065-190300-
CENTRAL INDIANA

CITY           SKY/WX    TMP DP  RH WIND       PRES   REMARKS
ANDERSON       CLEAR     51  43  73 CALM      30.15R
COLUMBUS       CLEAR     48  45  87 CALM      30.17R
FRANKFORT +    MOCLDY    52  45  76 S6        30.13S
INDIANAPOLIS   CLEAR     54  44  69 S5        30.14S
-EAGLE CREEK   CLEAR     53  32  44 CALM      30.14R
KOKOMO +       CLEAR     54  46  74 SW5       30.14R
MT COMFORT *+  CLEAR     54  46  76 CALM      30.16R
SHELBYVILLE    CLEAR     54  45  71 S5        30.14S
ZIONSVILLE +   CLEAR     46  45  94 CALM      30.15R

$$

INZ033-034-041-042-049-050-058-059-190300-
EAST CENTRAL INDIANA

CITY           SKY/WX    TMP DP  RH WIND       PRES   REMARKS
MUNCIE         CLEAR     50  44  80 CALM      30.14R

$$

INZ060-061-067>069-081>083-085>088-190300-
SOUTHWEST INDIANA

CITY           SKY/WX    TMP DP  RH WIND       PRES   REMARKS
EVANSVILLE     CLEAR     53  48  83 CALM      30.16R
HUNTINGBURG *+ CLEAR     52  47  83 CALM      30.17R HAZE
WASHINGTON +   CLEAR     50  45  80 CALM      30.15S

$$

INZ062-063-066-070>080-084-089>092-190300-
SOUTH CENTRAL AND SOUTHEAST INDIANA

CITY           SKY/WX    TMP DP  RH WIND       PRES   REMARKS
BLOOMINGTON    CLEAR     50  46  86 CALM      30.15S
MADISON *+     CLEAR     50  48  93 CALM      30.19S

$$



 

View Past Reports for Indianapolis, IN.

Products Courtesy of NOAA-NWS
NWS Information Parsing Script by Ken True at Saratoga Weather - Script by SE Lincoln Weather.